Weather History for Miles City, MT

Change the Weather History Date:

Friday, February 15, 2013

  Actual Average Record
Temperature  
Mean Temperature 31 °F 24 °F  
Max Temperature 41 °F 35 °F 55 °F (1981)
Min Temperature 21 °F 13 °F -25 °F (1958)
Degree Days  
Heating Degree Days 34 41  
Month to date heating degree days 479 636  
Since 1 July heating degree days 4759 5232  
Cooling Degree Days 0 0  
Month to date cooling degree days 0 0  
Year to date cooling degree days 0 0  
Moisture  
Dew Point 19 °F    
Average Humidity 59    
Maximum Humidity 81    
Minimum Humidity 37    
Precipitation  
Precipitation 0.00 in 0.00 in 0.30 in (1959)
Month to date precipitation T 0.10  
Year to date precipitation 0.18 0.42  
Sea Level Pressure  
Sea Level Pressure 30.31 in    
Wind  
Wind Speed 8 mph (WSW)    
Max Wind Speed 21 mph    
Max Gust Speed 26 mph    
Visibility 10 miles    
Events      
T = Trace of Precipitation, MM = Missing Value Source: NWS Daily Summary

Daily Weather History Graph

Daily Weather History Graph

Search for Another Location

Airport:

Trip Planner

Search our weather history database for the weather conditions in past years. The results will help you decide how hot, cold, wet, or windy it might be!

Date:

Astronomy

Feb. 15, 2013 Rise Set
Actual Time 7:06 AM MST 5:29 PM MST
Civil Twilight 6:35 AM MST 6:00 PM MST
Nautical Twilight 6:00 AM MST 6:35 PM MST
Astronomical Twilight 5:25 AM MST 7:10 PM MST
Moon 9:21 AM MST (2/15) 11:58 PM MST (2/15)
Length of Visible Light 11h 25m
Length of Day
10h 23m
Waxing Crescent, 31% of the Moon is Illuminated
Feb 15
Waxing Crescent
Feb 17
First Quarter
Feb 25
Full
Mar 4
Last Quarter
Mar 11
New

Hourly Weather History & Observations

Time (MST) Temp. Windchill Dew Point Humidity Pressure Visibility Wind Dir Wind Speed Gust Speed Precip Events Conditions
12:53 AM 24.1 °F 19.7 °F 18.0 °F 77% 30.40 in 10.0 mi SW 3.5 mph - N/A   Overcast
1:53 AM 24.1 °F 19.7 °F 17.1 °F 75% 30.40 in 10.0 mi SW 3.5 mph - N/A   Overcast
2:53 AM 24.1 °F 18.2 °F 17.1 °F 75% 30.41 in 10.0 mi WNW 4.6 mph - N/A   Overcast
3:53 AM 23.0 °F 15.8 °F 17.1 °F 78% 30.39 in 10.0 mi SW 5.8 mph - N/A   Mostly Cloudy
4:53 AM 23.0 °F 14.7 °F 16.0 °F 74% 30.41 in 10.0 mi West 6.9 mph - N/A   Partly Cloudy
5:53 AM 23.0 °F 13.9 °F 16.0 °F 74% 30.42 in 10.0 mi West 8.1 mph - N/A   Mostly Cloudy
6:53 AM 21.0 °F 14.6 °F 16.0 °F 81% 30.44 in 10.0 mi NW 4.6 mph - N/A   Mostly Cloudy
7:53 AM 24.1 °F 18.2 °F 18.0 °F 77% 30.45 in 10.0 mi SW 4.6 mph - N/A   Clear
8:53 AM 28.0 °F 20.8 °F 19.0 °F 69% 30.45 in 10.0 mi WSW 6.9 mph - N/A   Clear
9:53 AM 32.0 °F 23.0 °F 18.0 °F 56% 30.43 in 10.0 mi WSW 11.5 mph - N/A   Clear
10:53 AM 34.0 °F 26.0 °F 18.0 °F 52% 30.41 in 10.0 mi West 10.4 mph - N/A   Scattered Clouds
11:53 AM 35.1 °F 26.9 °F 17.1 °F 48% 30.38 in 10.0 mi WSW 11.5 mph - N/A   Mostly Cloudy
12:53 PM 36.0 °F 27.1 °F 15.1 °F 43% 30.36 in 10.0 mi West 13.8 mph - N/A   Overcast
1:53 PM 37.9 °F 30.9 °F 16.0 °F 41% 30.33 in 10.0 mi West 10.4 mph - N/A   Clear
2:53 PM 39.0 °F 32.8 °F 15.1 °F 38% 30.30 in 10.0 mi West 9.2 mph - N/A   Clear
3:53 PM 39.0 °F 32.8 °F 17.1 °F 41% 30.28 in 10.0 mi WSW 9.2 mph - N/A   Mostly Cloudy
4:53 PM 37.0 °F 32.4 °F 19.0 °F 48% 30.25 in 10.0 mi SSW 5.8 mph - N/A   Overcast
5:53 PM 36.0 °F 29.6 °F 19.0 °F 50% 30.22 in 10.0 mi South 8.1 mph - N/A   Overcast
6:53 PM 36.0 °F 29.6 °F 21.9 °F 57% 30.20 in 10.0 mi South 8.1 mph - N/A   Overcast
7:53 PM 34.0 °F 28.8 °F 23.0 °F 64% 30.17 in 10.0 mi SSE 5.8 mph - N/A   Overcast
8:53 PM 36.0 °F 29.6 °F 23.0 °F 59% 30.13 in 10.0 mi South 8.1 mph - N/A   Overcast
9:53 PM 37.0 °F 31.0 °F 25.0 °F 62% 30.09 in 10.0 mi WSW 8.1 mph - N/A   Overcast
10:53 PM 39.9 °F 33.9 °F 25.0 °F 55% 30.08 in 10.0 mi WNW 9.2 mph - N/A   Overcast
11:53 PM 39.9 °F 31.4 °F 26.1 °F 58% 30.06 in 10.0 mi West 16.1 mph - N/A   Clear